www.pogodaiklimat.ru

Погода и климат >> Архив погоды >> Аргентина >> Тартагаль


ПОГОДА в Тартагале

  • Прогноз погоды в Тартагале
  • Монитор погоды в Тартагале

АРХИВ ПОГОДЫ в Тартагале

Время (UTC), дата Ветер
(напр.,м/с)
 
Видим.   Явления Облачность Т
(С)
Тd
(С)
f
(%)
Тe
(С)
Тes
(С)
Комфортность P
(гПа)
Po
(гПа)
Тmin
(С)
Tmax
(С)
R
(мм)
R24
(мм)
S
(см)
12 14.03 З 1 10 км 6/1 900 м
[Cu med, cong Ac As Cs]
+22.9 +20.0 84 +30 +33 очень
душно
1012.6 962.1 +19.5 +22.9 0.2
15 14.03 В 3 10 км 8/4 900 м
[Cu med, cong Ac As Ci sp]
+26.1 +20.2 70 +32 +38 очень
душно
961.8
18 14.03 З 1 5000 м дождь 10/3 600 м
[Cu med, cong As op]
+22.5 +20.7 90 +29 +32 очень
душно
1010.4 960.0 3
21 14.03 Ю 3 10 км 10/4 450 м
[Cu med, cong Ac As]
+22.9 +21.2 90 +30 +31 очень
душно
1009.0 958.6
00 15.03 штиль 0 10 км 10/4 900 м
[Sc Ac As]
+21.3 +19.9 92 +26 +26 душно 1009.9 959.9 +21.0 +26.8 0.0
06 15.03 З 3 10 км 10/4 600 м
[Frnb Ac As]
+21.4 +19.5 89 +26 +26 душно 1011.4 960.7
09 15.03 Ю 3 10 км 10/4 600 м
[Frnb Ac As]
+20.3 +19.8 97 +25 +25 комфорт 1010.3 959.9
12 15.03 Ю 2 6000 м слаб. морось 10/10 360 м
[Frnb]
+21.0 +20.4 96 +27 +27 душно 1012.4 961.8 +20.0 +21.3 0.0
15 15.03 Ю 2 10 км в посл. час морось 10/10 360 м
[Frnb]
+22.6 +21.4 93 +30 +30 очень
душно
961.6
18 15.03 Ю 3 10 км 10/10 600 м
[Sc]
+25.6 +20.5 73 +32 +32 очень
душно
1008.7 958.7 0.6
21 15.03 Ю 1 10 км 8/8 750 м
[Sc]
+25.3 +20.7 76 +32 +32 очень
душно
1007.0 957.0
00 16.03 Ю 2 10 км 10/10 750 м
[Sc]
+22.8 +21.6 93 +30 +30 очень
душно
1009.8 959.4 +21.0 +26.5
06 16.03 штиль 0 4000 м слаб. морось 10/10 300 м
[Frnb]
+21.8 +21.5 98 +28 +28 душно 1008.6 958.6 1
09 16.03 штиль 0 4000 м слаб. морось 10/10 300 м
[Frnb]
+21.6 +21.3 98 +28 +28 очень
душно
1008.0 958.0
12 16.03 ЮЗ 3 4000 м слаб. морось 10/10 240 м
[Frnb]
+21.8 +21.5 98 +28 +28 душно 1009.8 959.8 +21.0 +22.8 10
15 16.03 Ю 7 5000 м слаб. морось 10/10 240 м
[Frnb]
+22.6 +22.3 98 +30 +30 очень
душно
959.5
18 16.03 Ю 7 5000 м слаб. морось 10/10 240 м
[Frnb]
+22.8 +21.9 95 +31 +31 очень
душно
1007.6 957.6 0.5
21 16.03 штиль 0 50 км слаб. морось ?/? +22.0 +20.7 92 +28 +28 душно 1006.7 956.4
00 17.03 Ю 3 8000 м осадки на расстоянии {морось} 10/10
[Frnb]
+21.0 +20.7 98 +27 +27 душно 1009.0 958.6
06 17.03 Ю 3 4000 м морось 10/10 240 м
[Frnb]
+20.4 +20.1 98 +25 +25 комфорт 1009.9 959.6 0.2
09 17.03 Ю 3 5000 м слаб. морось 10/10 240 м
[Frnb]
+20.2 +19.9 98 +24 +24 комфорт 1009.4 959.1
12 17.03 Ю 3 5000 м слаб. морось 10/10 240 м
[Frnb]
+20.6 +20.3 98 +26 +26 душно 1009.9 959.6 +19.6 +21.2 4
15 17.03 Ю 3 4000 м слаб. морось туман 10/10 240 м
[Frnb]
+21.6 +21.0 96 +27 +27 душно 959.6
18 17.03 ЮВ 4 8000 м осадки на расстоянии {морось} 9/6 450 м
[Cu med, cong Ac As]
+23.6 +21.4 87 +30 +32 очень
душно
1007.2 957.2 0.6
21 17.03 ЮВ 1 8000 м в посл. час морось туман 10/6 300 м
[Frnb Ac As]
+21.8 +20.9 95 +28 +28 душно 1007.1 956.7
00 18.03 штиль 0 5000 м слаб. морось 10/10 180 м
[Frnb]
+21.2 +20.6 96 +26 +26 душно 1009.4 959.1 +20.6 +24.5 0.3
06 18.03 Ю 3 5000 м слаб. морось 10/10 150 м
[Frnb]
+20.0 +20.0 100 +24 +24 комфорт 1012.3 961.6 14
09 18.03 Ю 3 10 км 10/10 360 м
[Frnb]
+20.0 +20.0 100 +24 +24 комфорт 1011.5 960.8
12 18.03 ЮВ 1 10 км {морось} 10/10 150 м
[Frnb]
+20.0 +19.5 97 +25 +25 комфорт 1013.0 962.3 +19.2 +21.2 0.4
15 18.03 штиль 0 10 км в посл. час морось 10/10 300 м
[Frnb]
+21.6 +20.1 91 +27 +27 душно 962.4
18 18.03 СВ 3 10 км {морось} 9/9 900 м
[Cu med, cong]
+24.1 +20.1 78 +30 +31 очень
душно
1009.4 959.4 0.0
21 18.03 В 3 10 км 9/4 360 м
[Sc Ac As]
+23.7 +20.7 83 +30 +30 очень
душно
1007.8 957.3
00 19.03 штиль 0 10 км 10/10 450 м
[St]
+22.2 +21.0 93 +29 +29 очень
душно
1008.0 957.8 +20.0 +25.4
06 19.03 штиль 0 10 км 10/10 600 м
[Sc]
+21.4 +20.2 93 +27 +27 душно 1008.2 958.2
09 19.03 штиль 0 10 км 10/4 750 м
[Sc Ac As]
+21.6 +21.0 96 +27 +27 душно 1007.0 957.0
12 19.03 СВ 1 6000 м в посл. час морось туман 10/10 150 м
[Frnb]
+21.9 +21.0 95 +28 +28 душно 1008.7 958.7 +21.3 +22.2 0.0
15 19.03 В 3 2000 м морось 10/10 150 м
[Frnb]
+22.9 +22.2 96 +31 +31 очень
душно
959.4
18 19.03 В 3 1500 м морось 10/10 150 м
[Frnb]
+23.0 +22.3 96 +31 +31 очень
душно
1007.8 957.8 4
21 19.03 Ю 4 1000 м морось 10/10 150 м
[Frnb]
+22.3 +22.0 98 +30 +30 очень
душно
1008.3 957.9
00 20.03 Ю 4 2000 м слаб. морось 10/10 150 м
[Frnb]
+20.4 +20.1 98 +25 +25 комфорт 1010.6 960.2 +19.6 +23.5 9
06 20.03 Ю 4 2000 м гроза, ливневой дождь {морось} 10/6 150 м
[Cb cap As op]
+20.3 +20.0 98 +24 +24 комфорт 1014.0 963.4 6
09 20.03 Ю 3 5000 м слаб. морось {гроза} 10/10 300 м
[Frnb]
+20.0 +19.4 96 +24 +24 комфорт 1014.0 963.4
12 20.03 Ю 9
{12}
3000 м морось {гроза} 10/10 150 м
[Frnb]
+18.5 +17.9 96 +18 +18 1019.2 967.8 +18.5 +20.6 1
15 20.03 Ю 7 10 км 10/10 300 м
[Sc]
+17.1 +14.7 86 +16 +16 970.3
18 20.03 Ю 9 10 км {морось} 10/4 900 м
[Sc Ac As]
+18.3 +14.2 77 +18 +18 1018.8 967.4 0.2
21 20.03 Ю 7 10 км 10/4 900 м
[Sc Ac As]
+18.5 +13.4 72 +18 +19 1016.6 965.6
00 21.03 Ю 4 10 км 10/10 450 м
[Frnb]
+16.7 +14.2 85 +16 +16 1019.8 968.0 +16.4 +19.4
06 21.03 Ю 4 3000 м морось 10/10 300 м
[Frnb]
+14.1 +13.2 94 +13 +13 1021.9 970.3 1
09 21.03 ЮЗ 5 3000 м морось 10/10 300 м
[Frnb]
+14.0 +13.6 97 +12 +12 1021.4 969.2

 

Местоположение метеостанции Тартагаль (Аргентина): широта -22.62 долгота -63.80 высота над уровнем моря 450 м.

В архиве по умолчанию представлена погода в Тартагале за последнюю неделю. Архивные данные за месяц целиком и за предыдущие месяцы, начиная с января 2011 года, Вы можете получить, выбрав интересующий диапазон дат из раскрывающегося списка и нажав кнопку "Ввод!".


*Определитесь, кто Вы:
робот инопланетянин человек

Внимание! Время в таблицах - всемирное. Для получения местного времени необходимо прибавить поправку, которая равна -3 ч.

Смотрите также архив погоды в соседних городах и на ближайших метеорологических станциях:

Погода в Бермехо (Боливия) (55 км)
Погода в Якуибе (Боливия) (76 км)
Погода в Сан-Рамон-де-ла-Нуэва-Оране (Аргентина) (79 км)
Погода в Тарихе (Боливия) (151 км)
Погода в Вилья-Монтесе (Боливия) (157 км)
Погода в Ла-Кьяке (Аргентина) (194 км)
Погода в Сан-Сальвадор-де-Жужуе (Аргентина) (235 км)
Погода в Пратс-Гиле (Парагвай) (236 км)
Погода в Камири (Боливия) (293 км)
Погода в Сальте (Аргентина) (301 км)

Пояснения к столбцам:

Ветер - указаны скорость ветра в м/с - средняя за 10 мин, порывы в срок и между сроками (в фигурных скобках) и направление, откуда дует ветер: С - северный, СВ - северо-восточный, В - восточный, ЮВ - юго-восточный, Ю - южный, ЮЗ - юго-западный, З - западный, СЗ - северо-западный.
Видимость - горизонтальная дальность видимости в метрах или километрах. При видимости от 1 до 10 км при отсутствии осадков обычно наблюдается дымка, при ухудшении видимости до 1 км и менее - туман. В сухую погоду видимость может ухудшаться дымом, пылью или мглою.
Явления - указаны атмосферные явления, наблюдавшиеся в срок или в последний час перед сроком; фигурными скобками обозначены явления, наблюдавшиеся между сроками (за 1-3 часа до срока); квадратными скобками обозначены град или гололедные отложения с указанием их диаметра в мм.
Облачность - указаны через наклонную черту общая и нижняя облачность в баллах и высота нижней границы облаков в метрах; квадратными скобками обозначены формы облаков: Ci - перистые, Cs - перисто-слоистые, Cc - перисто-кучевые, Ac - высококучевые, As - высокослоистые, Sc - слоисто-кучевые, Ns - слоисто-дождевые, Cu - кучевые, Cb - кучево-дождевые. Подробнее классификацию облаков см. в Атласе облаков (PDF).
T - Температура воздуха - температура, измеренная на высоте 2 м над землей.
Td - Температура точки росы - температура, при понижении до которой содержащийся в воздухе водяной пар достигнет насыщения.
f - Относительная влажность воздуха - влажноcть воздуха, измеренная на высоте 2 м над землей.
Te - Эффективная температура - температура, которую ощущает одетый по сезону человек в тени. Характеристика душности погоды. При расчете учитывается влияние влажности воздуха и скорости ветра на теплоощущения человека.
Tes - Эффективная температура на солнце - температура, которую ощущает человек, с поправкой на солнечный нагрев. Характеристика знойности погоды. Зависит от высоты солнца над горизонтом, облачности и скорости ветра. Ночью, в пасмурную погоду, а также при ветре 12 м/с и более поправка равна нулю.
P - Атмосферное давление - приведенное к уровню моря атмосферное давление.
Po - Атмосферное давление - измеренное на уровне метеостанции атмосферное давление.
Tmin - Минимальная температура - минимум температуры воздуха на высоте 2 м над землей.
Tmax - Максимальная температура - максимум температуры воздуха на высоте 2 м над землей.
R - Количество осадков - Количество выпавших осадков за период времени, мм. При наведении курсора мыши на число - период времени, за который выпало указанное количество осадков.
R24 - Количество осадков - Количество выпавших осадков за 24 часа, мм.
S - Снежный покров - Высота снежного покрова, см. При наведении курсора мыши на число - состояние снежного покрова и степень покрытия местности в баллах.